CW8593 Gava ES current weather conditions

sailwx.info

Wind from 254 at 1 knots gusting 3

Air temperature 22.2° C
Dewpoint 15.1° C

Last reported at 2017-Jun-28 19:02 UTC.
Time now 2017-Jun-28 19:29 UTC

Location: N 41°18' E 001°60'.
View on Google Maps.

See reports from other nearby stations

  
Tides and Currents Weather Stations Pressure Air Temp Water Temp Dewpoint Dewpoint Depression Visibility Wind Speed Wind Dir Waves Ship Positions
date/time (UTC)wind fromknots sea level pressurealtimeterstation pressurevisibilityair tempwater tempwave heightnotes
2017-Jun-28 19:02 254 1 gusting 3 22.2
2017-Jun-28 18:53 253 2 gusting 5 22.2
2017-Jun-28 18:44 227 0 gusting 5 21.7
2017-Jun-28 18:35 221 1 gusting 3 21.7
2017-Jun-28 18:26 217 2 gusting 4 21.1
2017-Jun-28 18:17 213 2 gusting 6 21.1
2017-Jun-28 18:08 218 1 gusting 6 21.1
2017-Jun-28 17:59 256 2 gusting 5 21.1
2017-Jun-28 17:50 274 4 gusting 7 20.6
2017-Jun-28 17:41 250 8 gusting 14 20.0
2017-Jun-28 17:32 271 10 gusting 33 21.1
2017-Jun-28 17:23 245 5 gusting 33 25.6
2017-Jun-28 17:14 221 6 gusting 10 26.1
2017-Jun-28 17:05 205 6 gusting 15 26.1
2017-Jun-28 16:56 209 7 gusting 17 26.1
2017-Jun-28 16:47 208 8 gusting 17 26.7
2017-Jun-28 16:38 210 9 gusting 17 26.1
2017-Jun-28 16:29 215 9 gusting 17 26.7
2017-Jun-28 16:20 203 10 gusting 20 26.7
2017-Jun-28 16:11 206 9 gusting 19 26.7
2017-Jun-28 16:02 210 10 gusting 19 26.7
2017-Jun-28 15:53 206 9 gusting 19 26.7
2017-Jun-28 15:44 227 9 gusting 19 27.2
2017-Jun-28 15:35 218 9 gusting 19 27.2
2017-Jun-28 15:26 211 8 gusting 22 27.8
2017-Jun-28 15:17 232 7 gusting 19 27.8
2017-Jun-28 15:08 248 8 gusting 15 27.8
2017-Jun-28 14:59 246 9 gusting 21 27.2
2017-Jun-28 14:50 249 10 gusting 23 26.7
2017-Jun-28 14:41 250 12 gusting 24 26.7
2017-Jun-28 14:32 243 10 gusting 24 26.1
2017-Jun-28 14:23 225 9 gusting 23 27.2
2017-Jun-28 14:14 228 8 gusting 23 28.3
2017-Jun-28 14:05 253 8 gusting 20 29.4
2017-Jun-28 13:56 260 9 gusting 20 30.0
2017-Jun-28 13:47 268 8 gusting 20 30.0
2017-Jun-28 13:38 253 7 gusting 19 30.0
2017-Jun-28 13:29 267 7 gusting 19 30.0
2017-Jun-28 13:20 272 6 gusting 14 30.0
2017-Jun-28 13:11 287 6 gusting 14 29.4
2017-Jun-28 13:02 271 9 gusting 15 29.4
2017-Jun-28 12:53 263 9 gusting 23 29.4
2017-Jun-28 12:44 258 6 gusting 22 29.4
2017-Jun-28 12:35 243 6 gusting 17 29.4
2017-Jun-28 12:26 260 5 gusting 16 29.4
2017-Jun-28 12:17 272 6 gusting 16 28.9
2017-Jun-28 12:08 274 6 gusting 17 28.9
2017-Jun-28 11:59 249 6 gusting 13 29.4
2017-Jun-28 11:50 247 5 gusting 17 28.9
2017-Jun-28 11:41 260 5 gusting 14 28.9
2017-Jun-28 11:32 258 6 gusting 16 28.3
2017-Jun-28 11:23 213 6 gusting 17 27.8
2017-Jun-28 11:14 218 6 gusting 14 27.2
2017-Jun-28 11:05 172 6 gusting 11 27.2
2017-Jun-28 10:56 167 8 gusting 17 26.7
2017-Jun-28 10:47 200 8 gusting 18 26.7
2017-Jun-28 10:38 198 9 gusting 18 26.7
2017-Jun-28 10:29 203 9 gusting 17 26.7
2017-Jun-28 10:20 201 8 gusting 18 26.1
2017-Jun-28 10:11 210 9 gusting 18 26.7
2017-Jun-28 10:02 217 9 gusting 19 26.1
2017-Jun-28 09:53 210 9 gusting 19 26.7
2017-Jun-28 09:44 208 6 gusting 20 26.7
2017-Jun-28 09:35 244 6 gusting 14 27.8
2017-Jun-28 09:26 272 6 gusting 13 27.8
2017-Jun-28 09:17 288 7 gusting 16 27.2
2017-Jun-28 09:08 274 6 gusting 15 27.2
2017-Jun-28 08:59 258 6 gusting 17 26.7
2017-Jun-28 08:50 265 3 gusting 9 26.7
2017-Jun-28 08:41 231 4 gusting 9 27.2
2017-Jun-28 08:32 243 4 gusting 12 26.7
2017-Jun-28 08:23 246 5 gusting 13 26.1
2017-Jun-28 08:14 278 5 gusting 13 26.1
2017-Jun-28 08:05 289 4 gusting 10 26.1
2017-Jun-28 07:56 270 3 gusting 12 25.6
2017-Jun-28 07:47 270 2 gusting 8 25.6
2017-Jun-28 07:38 262 0 gusting 10 25.6
2017-Jun-28 07:29 236 0 gusting 6 26.1
2017-Jun-28 07:20 254 0 gusting 4 25.6
2017-Jun-28 07:11 257 2 gusting 4 25.0
2017-Jun-28 07:02 226 4 gusting 7 24.4
2017-Jun-28 06:53 213 3 gusting 7 24.4
2017-Jun-28 06:44 200 1 gusting 6 24.4
2017-Jun-28 06:35 187 1 gusting 5 24.4
2017-Jun-28 06:26 209 1 gusting 4 24.4
2017-Jun-28 06:17 232 0 gusting 6 23.9
2017-Jun-28 06:08 301 0 gusting 4 23.9
2017-Jun-28 05:59 307 0 gusting 4 23.3
2017-Jun-28 05:50 011 0 gusting 2 23.3
2017-Jun-28 05:41 011 22.8
2017-Jun-28 05:32 011 0 gusting 1 22.2
2017-Jun-28 05:23 011 0 gusting 3 22.2
2017-Jun-28 05:14 011 22.2
2017-Jun-28 05:05 011 0 gusting 1 21.7
2017-Jun-28 04:56 011 22.2
2017-Jun-28 04:47 011 22.2
2017-Jun-28 04:38 011 1 gusting 1 22.2
2017-Jun-28 04:29 020 0 gusting 3 22.2
2017-Jun-28 04:20 041 22.8
2017-Jun-28 04:11 042 22.8
2017-Jun-28 04:02 041 22.8
2017-Jun-28 03:53 041 0 gusting 2 22.8
2017-Jun-28 03:44 041 0 gusting 4 22.8
2017-Jun-28 03:35 041 0 gusting 2 22.8
2017-Jun-28 03:26 041 0 gusting 3 22.8
2017-Jun-28 03:17 065 1 gusting 4 22.8
2017-Jun-28 03:08 071 3 gusting 6 23.3
2017-Jun-28 02:59 050 3 gusting 7 23.3
2017-Jun-28 02:50 040 2 gusting 6 23.3
2017-Jun-28 02:41 087 2 gusting 6 23.3
2017-Jun-28 02:32 072 4 gusting 9 23.3
2017-Jun-28 02:23 065 3 gusting 9 23.3
2017-Jun-28 02:14 065 3 gusting 8 23.3
2017-Jun-28 02:05 065 2 gusting 9 23.3
2017-Jun-28 01:56 046 2 gusting 6 23.3
2017-Jun-28 01:47 040 4 gusting 7 23.9
2017-Jun-28 01:38 060 6 gusting 14 23.9
2017-Jun-28 01:29 060 6 gusting 16 23.9
2017-Jun-28 01:20 057 6 gusting 13 23.9
2017-Jun-28 01:11 041 6 gusting 12 23.9
2017-Jun-28 01:02 045 2 gusting 14 23.9
2017-Jun-28 00:53 331 0 gusting 4 24.4
2017-Jun-28 00:44 331 1 gusting 4 24.4
2017-Jun-28 00:35 332 24.4
2017-Jun-28 00:26 333 24.4
2017-Jun-28 00:17 333 24.4
2017-Jun-28 00:08 333 24.4
2017-Jun-27 23:59 332 1 gusting 3 24.4
2017-Jun-27 23:50 332 0 gusting 3 24.4
2017-Jun-27 23:41 332 1 gusting 3 24.4
2017-Jun-27 23:32 327 1 gusting 4 24.4
2017-Jun-27 23:23 280 24.4
2017-Jun-27 23:14 188 24.4
2017-Jun-27 23:05 188 1 gusting 2 24.4
2017-Jun-27 22:56 188 0 gusting 3 24.4
2017-Jun-27 22:47 188 24.4
2017-Jun-27 22:38 188 0 gusting 0 24.4
2017-Jun-27 22:29 187 0 gusting 2 24.4
2017-Jun-27 22:20 188 0 gusting 1 24.4
2017-Jun-27 22:11 187 0 gusting 2 24.4
2017-Jun-27 22:02 187 1 gusting 3 24.4
2017-Jun-27 21:53 187 0 gusting 3 24.4
2017-Jun-27 21:44 186 25.0
2017-Jun-27 21:35 186 25.0
2017-Jun-27 21:26 186 25.0
2017-Jun-27 21:17 187 0 gusting 2 25.0
2017-Jun-27 21:08 187 25.6
2017-Jun-27 20:59 186 25.6
2017-Jun-27 20:50 186 0 gusting 1 25.6
2017-Jun-27 20:41 187 0 gusting 2 25.6
2017-Jun-27 20:32 186 0 gusting 2 25.6
2017-Jun-27 20:23 187 0 gusting 2 25.6
2017-Jun-27 20:14 187 1 gusting 3 25.6
2017-Jun-27 20:05 185 1 gusting 3 25.6
2017-Jun-27 19:56 179 0 gusting 4 25.6
2017-Jun-27 19:47 167 1 gusting 4 26.1
2017-Jun-27 19:38 159 1 gusting 3 26.1
2017-Jun-27 19:29 173 2 gusting 4 26.1
2017-Jun-27 19:20 209 2 gusting 6 26.1
2017-Jun-27 19:11 214 1 gusting 6 26.1
2017-Jun-27 19:02 225 1 gusting 7 26.7
2017-Jun-27 18:53 212 1 gusting 5 26.7
2017-Jun-27 18:44 205 0 gusting 6 26.7
2017-Jun-27 18:35 199 1 gusting 5 26.7
2017-Jun-27 18:26 209 2 gusting 6 26.7
2017-Jun-27 18:17 205 2 gusting 6 26.7
2017-Jun-27 18:08 241 0 gusting 4 26.7
2017-Jun-27 17:59 249 1 gusting 5 26.7
2017-Jun-27 17:50 233 2 gusting 5 26.7
2017-Jun-27 17:41 218 2 gusting 8 26.7
2017-Jun-27 17:32 178 2 gusting 8 26.7
2017-Jun-27 17:23 158 1 gusting 7 26.1
2017-Jun-27 17:14 140 1 gusting 4 26.1
2017-Jun-27 17:05 136 1 gusting 5 26.1
2017-Jun-27 16:56 105 3 gusting 9 26.1
2017-Jun-27 16:47 140 3 gusting 7 26.1
2017-Jun-27 16:38 159 4 gusting 8 26.7
2017-Jun-27 16:29 139 2 gusting 11 26.7
2017-Jun-27 16:20 138 3 gusting 9 26.7
2017-Jun-27 16:11 150 5 gusting 9 26.7
2017-Jun-27 16:02 132 3 gusting 8 26.1
2017-Jun-27 15:53 132 4 gusting 7 26.1
2017-Jun-27 15:44 165 4 gusting 8 26.1
2017-Jun-27 15:35 169 3 gusting 7 26.7
2017-Jun-27 15:26 147 4 gusting 9 26.7
2017-Jun-27 15:17 133 3 gusting 12 26.7
2017-Jun-27 15:08 163 3 gusting 7 27.2
2017-Jun-27 14:59 144 4 gusting 6 26.7
2017-Jun-27 14:50 119 3 gusting 10 26.7
2017-Jun-27 14:41 102 4 gusting 8 26.7
2017-Jun-27 14:32 116 5 gusting 10 26.1
2017-Jun-27 14:23 126 5 gusting 10 26.1
2017-Jun-27 14:14 117 3 gusting 10 26.1
2017-Jun-27 14:05 157 3 gusting 8 26.1
2017-Jun-27 13:56 133 4 gusting 11 26.1
2017-Jun-27 13:47 159 4 gusting 9 26.1
2017-Jun-27 13:38 174 3 gusting 7 26.7
2017-Jun-27 13:29 178 4 gusting 8 26.7
2017-Jun-27 13:20 160 3 gusting 8 26.1
2017-Jun-27 13:11 145 3 gusting 6 26.1
2017-Jun-27 13:02 147 3 gusting 13 26.7
2017-Jun-27 12:53 145 4 gusting 9 26.7
2017-Jun-27 12:44 152 3 gusting 11 26.7
2017-Jun-27 12:35 176 4 gusting 7 26.7
2017-Jun-27 12:26 117 4 gusting 9 26.7
2017-Jun-27 12:17 162 4 gusting 9 26.1
2017-Jun-27 12:08 141 5 gusting 9 26.1
2017-Jun-27 11:59 118 5 gusting 12 26.1
2017-Jun-27 11:14 149 5 gusting 12 25.6
2017-Jun-27 10:36 140 3 gusting 12 26.1
2017-Jun-27 10:27 141 5 gusting 10 25.6
2017-Jun-27 10:18 123 5 gusting 13 25.6
2017-Jun-27 10:09 116 5 gusting 10 26.1
2017-Jun-27 10:00 127 5 gusting 12 26.1
2017-Jun-27 09:51 131 6 gusting 10 25.6
2017-Jun-27 09:42 118 6 gusting 11 25.6
2017-Jun-27 09:33 118 6 gusting 11 25.6
2017-Jun-27 09:24 113 5 gusting 11 25.6
2017-Jun-27 09:15 119 5 gusting 9 25.6
2017-Jun-27 09:06 115 5 gusting 9 25.6
2017-Jun-27 08:57 104 6 gusting 9 26.1
2017-Jun-27 08:48 096 5 gusting 10 26.1
2017-Jun-27 08:39 099 4 gusting 11 26.1
2017-Jun-27 08:30 096 3 gusting 11 26.1
2017-Jun-27 08:21 081 4 gusting 7 25.6
2017-Jun-27 08:12 089 5 gusting 8 25.6
2017-Jun-27 08:03 095 4 gusting 12 25.6
2017-Jun-27 07:54 064 3 gusting 7 25.6
2017-Jun-27 07:45 082 4 gusting 7 25.0
2017-Jun-27 07:36 096 2 gusting 7 25.0
2017-Jun-27 07:27 108 3 gusting 8 24.4
2017-Jun-27 07:18 090 4 gusting 8 25.0
2017-Jun-27 07:09 092 4 gusting 9 24.4
2017-Jun-27 07:00 090 3 gusting 7 24.4
2017-Jun-27 06:51 070 3 gusting 6 24.4
2017-Jun-27 06:42 089 2 gusting 6 24.4
2017-Jun-27 06:33 053 2 gusting 6 24.4
2017-Jun-27 06:24 054 2 gusting 6 24.4
2017-Jun-27 06:15 046 1 gusting 5 24.4
2017-Jun-27 06:06 056 1 gusting 4 24.4
2017-Jun-27 05:57 069 2 gusting 4 23.9
2017-Jun-27 05:48 081 2 gusting 6 23.9
2017-Jun-27 05:39 081 1 gusting 6 23.9
2017-Jun-27 05:30 087 23.9
2017-Jun-27 05:21 072 0 gusting 1 23.9
2017-Jun-27 05:12 071 0 gusting 2 23.9
2017-Jun-27 05:03 050 0 gusting 4 23.9
2017-Jun-27 04:54 032 23.9
2017-Jun-27 04:45 033 0 gusting 1 23.9
2017-Jun-27 04:36 032 0 gusting 2 23.9
2017-Jun-27 04:27 032 1 gusting 3 23.9
2017-Jun-27 04:18 032 1 gusting 3 23.9
2017-Jun-27 04:09 033 0 gusting 2 23.9
2017-Jun-27 04:00 032 0 gusting 2 23.9
2017-Jun-27 03:51 033 1 gusting 3 23.9
2017-Jun-27 03:42 033 0 gusting 3 23.9
2017-Jun-27 03:33 033 1 gusting 2 23.9
2017-Jun-27 03:24 033 1 gusting 3 23.9
2017-Jun-27 03:15 074 1 gusting 4 23.9
2017-Jun-27 03:06 082 1 gusting 4 23.9
2017-Jun-27 02:57 083 1 gusting 4 23.9
2017-Jun-27 02:48 083 1 gusting 4 24.4
2017-Jun-27 02:39 083 0 gusting 4 24.4
2017-Jun-27 02:30 031 0 gusting 2 24.4
2017-Jun-27 02:21 346 23.9
2017-Jun-27 02:12 346 0 gusting 2 23.9
2017-Jun-27 02:03 346 24.4
2017-Jun-27 01:54 346 0 gusting 0 24.4
2017-Jun-27 01:45 346 0 gusting 2 24.4
2017-Jun-27 01:36 346 0 gusting 2 23.9
2017-Jun-27 01:27 346 0 gusting 2 23.9
2017-Jun-27 01:18 346 0 gusting 2 23.9
2017-Jun-27 01:09 346 2 gusting 4 23.9
2017-Jun-27 01:00 001 2 gusting 5 23.9
2017-Jun-27 00:51 002 3 gusting 6 24.4
2017-Jun-27 00:42 001 2 gusting 5 24.4
2017-Jun-27 00:33 001 2 gusting 4 24.4
2017-Jun-27 00:24 356 0 gusting 4 24.4
2017-Jun-27 00:15 350 24.4
2017-Jun-27 00:06 350 23.9
2017-Jun-26 23:57 350 0 gusting 0 23.9
2017-Jun-26 23:48 355 1 gusting 3 23.9
2017-Jun-26 23:39 001 24.4
2017-Jun-26 23:30 001 0 gusting 1 24.4
2017-Jun-26 23:21 001 0 gusting 2 25.0
2017-Jun-26 23:12 001 0 gusting 2 25.0
2017-Jun-26 23:03 001 24.4
2017-Jun-26 22:54 001 1 gusting 3 24.4
2017-Jun-26 22:45 358 2 gusting 6 24.4
2017-Jun-26 22:36 328 1 gusting 5 24.4
2017-Jun-26 22:27 294 0 gusting 4 25.0
2017-Jun-26 22:18 289 0 gusting 3 25.0
2017-Jun-26 22:09 272 0 gusting 3 25.0
2017-Jun-26 22:00 267 25.0
2017-Jun-26 21:51 267 0 gusting 2 25.0
2017-Jun-26 21:42 267 0 gusting 3 25.0
2017-Jun-26 21:33 267 25.0
2017-Jun-26 21:24 267 0 gusting 1 25.6
2017-Jun-26 21:15 226 0 gusting 3 25.6
2017-Jun-26 21:06 209 0 gusting 2 25.6
2017-Jun-26 20:57 209 0 gusting 2 25.6
2017-Jun-26 20:48 209 0 gusting 4 26.1
2017-Jun-26 20:39 209 1 gusting 3 26.1
2017-Jun-26 20:30 187 1 gusting 5 26.1
2017-Jun-26 20:21 157 0 gusting 4 26.1
2017-Jun-26 20:12 185 1 gusting 6 26.1
2017-Jun-26 20:03 207 1 gusting 6 26.1
2017-Jun-26 19:54 195 1 gusting 5 26.1
2017-Jun-26 19:45 194 0 gusting 5 26.1
2017-Jun-26 19:36 194 0 gusting 4 26.1
2017-Jun-26 19:27 192 1 gusting 4 26.7
2017-Jun-26 19:18 192 0 gusting 4 26.7
2017-Jun-26 19:09 190 2 gusting 5 26.7
2017-Jun-26 19:00 176 1 gusting 6 26.7